Regional Weather Roundup
Issued by NWS

Home | Current Version | Previous Version | Graphics & Text | Print | Product List | Glossary Off
Versions: 1 2 3 4 5 6 7 8 9 10 11 12 13 14 15 16 17 18 19 20 21 22 23 24 25 26 27 28 29 30 31 32 33 34 35 36 37 38 39 40 41 42 43 44 45 46 47 48 49 50

000
ASUS43 KMKX 261111
RWRWI

WISCONSIN REGIONAL WEATHER ROUNDUP
NATIONAL WEATHER SERVICE MILWAUKEE/SULLIVAN WI
600 AM CDT SUN MAR 26 2017

NOTE: "FAIR" INDICATES FEW OR NO CLOUDS BELOW 12,000 FEET WITH NO
SIGNIFICANT WEATHER AND/OR OBSTRUCTIONS TO VISIBILITY.

WIZ001-002-006>008-014>016-023>028-261200-
NORTHWEST WISCONSIN

CITY           SKY/WX    TMP DP  RH WIND       PRES   REMARKS
SUPERIOR ARPT  CLOUDY    33  32  99 NE8       30.02S WCI  25
ASHLAND        MIX PCPN  32  31  96 N3        30.02F VSB 1
HAYWARD        CLOUDY    35  32  88 NE6       29.97S WCI  30
SIREN          LGT RAIN  33  33  98 NE3       29.97S
CUMBERLAND     DRIZZLE   32  32 100 E6        29.95S WCI  26
RICE LAKE      CLOUDY    34  34  99 CALM      29.97S FOG
CHETEK         CLOUDY    34  33  99 CALM      29.95F FOG
LADYSMITH      CLOUDY    34  33  97 NE5       29.97F FOG     WCI  30
EAU CLAIRE     CLOUDY    35  34  96 NE6       29.94F WCI  30
MENOMONIE      CLOUDY    35  35  99 NE6       29.95F FOG     WCI  30
NEW RICHMOND   CLOUDY    34  34  99 E6        29.95R WCI  29
OSCEOLA        LGT RAIN  36  36 100 NE5       29.98S WCI  32
$$

WIZ003>005-009-010-017-018-261200-
NORTH CENTRAL WISCONSIN

CITY           SKY/WX    TMP DP  RH WIND       PRES   REMARKS
MANITOWISH WTR CLOUDY    32  32 100 E3        29.97S FOG
ARBOR VITAE    MIX PCPN  33  32  96 CALM      29.95F
WOODRUFF       MIX PCPN  33  32  96 CALM      29.95F
RHINELANDER    LGT RAIN  33  33 100 E8        29.96F FOG     WCI  26
EAGLE RIVER    CLOUDY    32  32 100 E7        29.97F WCI  25
LAND O LAKES   MIX PCPN  32  32  99 E3        29.98F
PHILLIPS       CLOUDY    32  32 100 E3        29.96S FOG
TOMAHAWK       DRIZZLE   32  31  96 CALM      29.96F
MEDFORD        MIX PCPN  32  31  96 E8        29.93S WCI  25
MERRILL        MIX PCPN  32  32 100 E3        29.96F
$$

WIZ029-030-035-036-043>047-261200-
CENTRAL WISCONSIN

CITY           SKY/WX    TMP DP  RH WIND       PRES   REMARKS
WAUSAU         MIX PCPN  32  32 100 E7        29.94F FOG     WCI  26
MOSINEE        LGT RAIN  32  32 100 E9        29.96S WCI  24
MARSHFIELD     LGT RAIN  33  31  92 E12       29.91F FOG     WCI  24
STEVENS POINT  CLOUDY    31  31 100 NE8       29.95S WCI  24
WAUPACA        CLOUDY    36  35  96 NE7       29.96F FOG     WCI  30
WAUTOMA        LGT RAIN  35  34  96 NE12      29.94F FOG     WCI  27
WISC RAPIDS    CLOUDY    34  34 100 E9        29.94F FOG     WCI  27
CAMP DOUGLAS   CLOUDY    36  36 100 NE6       29.91F WCI  31
$$

WIZ011>013-019>022-031-037>040-048>050-261200-
NORTHEAST WISCONSIN

CITY           SKY/WX    TMP DP  RH WIND       PRES   REMARKS
ANTIGO         CLOUDY    31  31 100 E9        29.96F FOG     WCI  23
SHAWANO        CLOUDY    34  33  94 NE8       29.99S WCI  28
OCONTO         CLOUDY    33  32  97 NE5       30.00F WCI  28
STURGEON BAY   MIX PCPN  35  34  96 E6        30.00F FOG     WCI  30
GREEN BAY      CLOUDY    35  35 100 NE13      29.97F FOG     WCI  26
MANITOWOC      LGT RAIN  37  36  96 NE8       29.97F FOG     WCI  31
APPLETON       FOG       34  34 100 NE9       29.94S VSB 3/4 WCI  26
CLINTONVILLE   CLOUDY    32  32 100 NE7       29.98S WCI  26
OSHKOSH        MIX PCPN  36  35  96 NE9       29.93F FOG     WCI  29
$$

WIZ032>034-041-042-053>061-261200-
SOUTHWEST WISCONSIN

CITY           SKY/WX    TMP DP  RH WIND       PRES   REMARKS
LA CROSSE      CLOUDY    38  36  92 N5        29.91F FOG     WCI  34
SPARTA         CLOUDY    35  35 100 E6        29.92S FOG     WCI  30
VIROQUA        CLOUDY    36  36 100 NE7       29.88S WCI  30
BOSCOBEL       CLOUDY    40  38  93 VRB5      29.88S
PRAIRIE DU CHI DRIZZLE   39  38  97 CALM      29.87S
PLATTEVILLE    CLOUDY    41  41 100 NE10      29.84S VSB 3/4
$$

WIZ056-057-062-063-064-067-068-261200-
SOUTH CENTRAL WISCONSIN

CITY           SKY/WX    TMP DP  RH WIND       PRES   REMARKS
REEDSBURG      CLOUDY    37  37 100 NE8       29.90S WCI  30
BARABOO/DELLS  CLOUDY    36  36  99 NE9       29.90S WCI  29
LONE ROCK      CLOUDY    40  38  93 E8        29.89S FOG     WCI  34
MINERAL POINT  FOG       41  41 100 NE9       29.85S VSB 1/2
MADISON        FOG       40  40 100 NE7       29.88F VSB 3/4
MIDDLETON      CLOUDY    41  41 100 NE6       29.88F VSB 1/2
WATERTOWN      CLOUDY    40  40 100 E10       29.89S FOG     WCI  33
MONROE         SNOW      41  41 100 NE10      29.84F VSB 1/4
JANESVILLE     FOG       43  43 100 E7        29.86S VSB 1/2
$$

WIZ051-052-058>065-066-070>072-261200-
SOUTHEAST WISCONSIN

CITY           SKY/WX    TMP DP  RH WIND       PRES   REMARKS
MILWAUKEE      FOG       39  37  92 NE10      29.91F VSB 1/2 WCI  32
WAUKESHA       FOG       37  37 100 MISG      29.91F VSB 1/2
MILWAUKEE/TIMM CLOUDY    37  36  93 NE6       29.93S FOG     WCI  33
RACINE         LGT RAIN  39  38  96 NE7       29.92F FOG     WCI  34
KENOSHA        FOG       41  41 100 NE8       29.89F VSB 1/2
FOND DU LAC    LGT RAIN  38  35  89 NE7       29.93F WCI  33
SHEBOYGAN      LGT RAIN  37  36  96 NE10      29.95S FOG     WCI  30
WEST BEND      CLOUDY    37  37 100 E10       29.92F FOG     WCI  30
JUNEAU         CLOUDY    39  38  99 E8        29.91S FOG     WCI  33
$$

LSZ147-162-261200-
LAKE SUPERIOR

STATION/POSITION TIME  TEMP    WIND        PRES    WAVE
                       AIR SEA DIR/SP/G            HT/PER
                 (UTC) (F)     (DEG/KT/KT) (MB)    (FT/S)
DEVILS ISLAND    1100   33     110/  4/  6 1017.6F
PORT WING        1040   33      40/  7/  8 1016.6F
SAXON HARBOR     1030   32      CALM  /  1 1016.3F
$$

LMZ867-665-643>646-261200-
LAKE MICHIGAN

STATION/POSITION TIME  TEMP    WIND        PRES    WAVE
                       AIR SEA DIR/SP/G            HT/PER
                 (UTC) (F)     (DEG/KT/KT) (MB)    (FT/S)
CHAMBERS ISLAND  1040   33      50/  8/ 13 1015.9F
NORTHPORT PIER   1040   33      70/ 14/ 17 1016.6F
SISTER BAY       1006   34     120/  7/ 10   N/A
KEWAUNEE LAKESHO 1048   36      50/  9/ 12 1014.9F
SHEBOYGAN LAKESH 1100   36      20/  9/ 10 1014.8F
PORT WASHINGTON  1040   38      40/ 13/ 15 1014.9F
MILWAUKEE LAKESH 1050   38      20/ 12/ 14   N/A
KENOSHA   LAKESH 1100   39      20/ 11/ 13 1012.5
$$

TC  - TEMPERATURE IN CELSIUS
VSB - VISIBILITY IN STATUTE MILES
WCI - WIND CHILL INDEX
HX  - HEAT INDEX





USA.gov is the U.S. government's official web portal to all federal, state and local government web resources and services.